Regional Weather Roundup
Issued by NWS Charleston, WV

Home | Current Version | Previous Version | Text Only | Print | Product List | Glossary Off
Versions: 1 2 3 4 5 6 7 8 9 10 11 12 13 14 15 16 17 18 19 20 21 22 23 24 25 26 27 28 29 30 31 32 33 34 35 36 37 38 39 40 41 42 43 44 45 46 47 48 49 50

000
ASUS41 KRLX 272010
RWRRLX
West Virginia Regional Weather Roundup
National Weather Service Charleston WV
300 PM EST TUE JAN 27 2015

Note: "fair" indicates few or no clouds below 12,000 feet with no
significant weather and/or obstructions to visibility.

WVZ003-272100-
Northern Panhandle of West Virginia

CITY           SKY/WX    TMP DP  RH WIND       PRES   REMARKS
WHEELING       LGT SNOW  21  14  74 NW14      29.97R WCI   8
$$

WVZ009-272100-
Northwest West Virginia

CITY           SKY/WX    TMP DP  RH WIND       PRES   REMARKS
PARKERSBURG    CLOUDY    24  14  65 NW8       30.04R
$$

WVZ006-272100-
Western West Virginia

CITY           SKY/WX    TMP DP  RH WIND       PRES   REMARKS
HUNTINGTON     PTSUNNY   26  16  65 N6        30.03S
$$

WVZ015-272100-
West Central West Virginia

CITY           SKY/WX    TMP DP  RH WIND       PRES   REMARKS
CHARLESTON     FLURRIES  24  15  68 W6        30.01S
$$

WVZ022-031-272100-
North Central West Virginia

CITY           SKY/WX    TMP DP  RH WIND       PRES   REMARKS
CLARKSBURG     LGT SNOW  22  18  85 W8        29.96R FOG
MORGANTOWN     LGT SNOW  23  15  71 NW8       29.95R
$$

WVZ025-035-042-045-272100-
Southern West Virginia

CITY           SKY/WX    TMP DP  RH WIND       PRES   REMARKS
BECKLEY        SUNNY     25  12  58 NW13G20   29.85R
LOGAN            N/A     25  14  63 VRB7      29.95S
BLUEFIELD      SUNNY     31   5  33 W10G18    29.82R
LEWISBURG      SUNNY     28  13  52 W12G18    29.83R
$$

WVZ047-272100-
Northern Mountains of West Virginia

CITY           SKY/WX    TMP DP  RH WIND       PRES   REMARKS
ELKINS         LGT SNOW  21  15  78 W7        29.89R
$$

WVZ052-272100-
Eastern Panhandle of West Virginia

CITY           SKY/WX    TMP DP  RH WIND       PRES   REMARKS
MARTINSBURG    CLOUDY    32  21  64 NW14      29.84R
PETERSBURG     CLOUDY    30  14  51 NW8       29.88S
$$


USA.gov is the U.S. government's official web portal to all federal, state and local government web resources and services.